Regional Weather Roundup
Issued by NWS Charleston, SC

Current Version | Previous Version | Graphics & Text | Print | Product List | Glossary On
Versions: 1 2 3 4 5 6 7 8 9 10 11 12 13 14 15 16 17 18 19 20 21 22 23 24 25 26 27 28 29 30 31 32 33 34 35 36 37 38 39 40 41 42 43 44 45 46 47 48 49 50
206 ASUS42 KCHS 091427 RWRCHS REGIONAL WEATHER ROUNDUP NATIONAL WEATHER SERVICE CHARLESTON SC 900 AM EST TUE FEB 09 2016 NOTE: "FAIR" INDICATES FEW OR NO CLOUDS BELOW 12,000 FEET WITH NO SIGNIFICANT WEATHER AND/OR OBSTRUCTIONS TO VISIBILITY. NOT ALL STATIONS ARE QUALITY CONTROLLED BY THE NATIONAL WEATHER SERVICE. USE DATA WITH CAUTION...ESPECIALLY DEWPOINT OBSERVATIONS. NOTICE: OBSERVATIONS FOR THE SAVANNAH-HILTON HEAD INTERNATIONAL AIRPORT /KSAV/ HAVE BEEN TEMPORARILY REMOVED DUE TO AN ERRONEOUS TEMPERATURE SENSOR. THE OBSERVATION WILL BE REINTRODUCED ONCE REPAIRS ARE COMPLETE. SCZ027-030-031-034>040-042>050-091500- ...SOUTHEAST SOUTH CAROLINA... CITY SKY/WX TMP DP RH WIND PRES REMARKS N CHARLESTON MOSUNNY 41 27 57 W16G22 29.86R WATERFRONT PRK N/A 41 30 65 W7 29.70R MOUNT PLEASANT FAIR 43 30 61 W8G20 29.87R JOHNS ISLAND FAIR 43 27 52 SW12G22 29.88R PINOPOLIS N/A 39 28 65 W14 29.77R WCI 31 MONCKS CORNER CLOUDY 37 25 60 SW8 29.85R WCI 31 SUMMERVILLE NOT AVBL BEAUFORT MCAS SUNNY 42 27 55 W15 29.89R BEAUFORT ARPT FAIR 43 28 56 W18 29.88S HILTON HEAD IS SUNNY 43 28 56 W12G24 29.92R WALTERBORO MOSUNNY 43 30 61 W12G18 29.87R ALLENDALE PTSUNNY 41 27 56 VRB6G13 29.85S ...SOUTHERN MIDLANDS AND PEE DEE... CITY SKY/WX TMP DP RH WIND PRES REMARKS GEORGETOWN NOT AVBL KINGSTREE NOT AVBL ORANGEBURG CLOUDY 38 25 59 W10 29.83R WCI 31 BARNWELL CLOUDY 43 30 61 W13G21 29.84S AIKEN PTSUNNY 37 23 56 W17 29.84S WCI 28 MANNING CLOUDY 37 23 56 W9G18 29.83R WCI 31 COLUMBIA PTSUNNY 40 23 50 W15G29 29.80R WCI 32 SUMTER MOSUNNY 37 24 57 SW15 29.77R WCI 28 FLORENCE SUNNY 38 24 57 W16G25 29.77R WCI 29 MYRTLE BEACH SUNNY 41 21 45 W16 29.80R N MYRTLE BEACH SUNNY 40 25 55 W14G28 29.76R WCI 32 $$ GAZ063-065-086>088-099>101-113>116-118-119-134>141-150-091500- ...SOUTHEAST GEORGIA... CITY SKY/WX TMP DP RH WIND PRES REMARKS SAVANNAH ARPT MOSUNNY 41 28 60 W14 29.91R HUNTER AAF SUNNY 41 30 64 W13G23 29.89R FORT STEWART SUNNY 41 28 60 W18G24 29.90S STATESBORO CLOUDY 44 23 44 W12G17 29.89F SYLVANIA CLOUDY 42 31 65 W9G17 29.89R CLAXTON CLOUDY 41 31 66 SW9G22 29.90S ...CSRA...CENTRAL AND FAR SOUTHEAST GEORGIA... CITY SKY/WX TMP DP RH WIND PRES REMARKS THOMSON CLOUDY 40 28 62 W8G22 29.88S WCI 34 AUGUSTA-BUSH PTSUNNY 40 22 48 W9 29.85R WCI 34 AUGUSTA-DANIEL CLOUDY 39 21 48 W9G22 29.84R WCI 33 SWAINSBORO CLOUDY 39 28 65 W9G17 29.90R WCI 33 VIDALIA CLOUDY 41 28 60 W12 29.91S EASTMAN CLOUDY 41 25 53 W9G18 29.94S HAZLEHURST PTSUNNY 42 28 57 W8G18 29.92S ALMA SUNNY 40 26 57 W16G23 29.94S WCI 31 WAYCROSS SUNNY 44 29 55 W15G28 29.95F JESUP FAIR 45 32 61 W7G22 29.94S BAXLEY FAIR 43 27 52 W15G23 29.93F BRUNSWICK SUNNY 43 30 61 W14 29.95F SAINT SIMONS SUNNY 43 27 53 W15G23 29.94F $$ SCZ027-028-034-036>038-045-046-048>050-GAZ119-141-091500- ...LAKE AND SUPPLEMENTAL COASTAL OBSERVATIONS... STATION/POSITION TIME TEMP WIND PRES WAVE SWELL AIR SEA DIR/SP/G HT/PER HT/PER/DIR (UTC) (F) (DEG/KT/KT) (MB) (FT/S) (FT/S/D) WINYAH BAY 1345 41 270/ 13 1008.0R LAKE MURRAY 1300 38 270/ 14/ 21 1007.8R ACE BASIN NERRS 1345 41 250/ 7 1011.0S FORT PULASKI 1400 41 52 240/ 11/ 18 1012.9R SAPELO ISLAND 1400 43 250/ 16 1014.0S $$ ANZ835-935-AMZ111-154-330-350-352-354-370-450-454-472-091500- ...C-MAN AND BUOY OBSERVATIONS... STATION/POSITION TIME TEMP WIND PRES WAVE SWELL AIR SEA DIR/SP/G HT/PER HT/PER/DIR (UTC) (F) (DEG/KT/KT) (MB) (FT/S) (FT/S/D) BUOY 41004 1350 46 65 270/ 25/ 31 1010.0R 8/ 7 2/14 BUOY 41008 1350 44 55 270/ 25/ 31 1013.2R 5/ 5 FOLLY BEACH CMAN 1400 42 250/ 10/ 18 1011.6R CAPERS NEARSHORE 1308 42 280/ 19/ 27 1009.6R FRIPP NEARSHORE 1300 44 270/ 23/ 27 1011.2R STATION/POSITION TIME TEMP WIND PRES WAVE SWELL AIR SEA DIR/SP/G HT/PER HT/PER/DIR (UTC) (F) (DEG/KT/KT) (MB) (FT/S) (FT/S/D) 5E ST. MARYS GA 1321 56 N/A 4/ 4 2/ 80/17 FRYING PAN BUOY 1400 47 63 270/ 25/ 31 1007.5R BUOY 41025 1350 47 73 290/ 16/ 19 1002.8R 11/14 10/ 70/14 CAPE LOOKOUT NC NOT AVBL BUOY 41002 1350 59 69 280/ 31/ 39 N/A 17/10 11/260/10 BUOY 41010 1320 61 72 1013.0R ST AUGUSTINE FL 1400 46 56 270/ 16/ 20 1016.7F $$

USA.gov is the U.S. government's official web portal to all federal, state and local government web resources and services.